#timestamp,LO_Frequency,Hit,StdDev 
1571767215.1,286046999.4,N
1571767235.9,286046997.2,N
1571767255.7,286046999.5,N
1571767275.5,286046998.3,N
1571767295.4,286046999.9,N
1571767315.2,286047000.1,N
1571767335.0,286047001.8,N
1571767335.9,286047001.8,N
1571767355.8,286047003.4,N
1571767375.6,286047003.1,N
1571767395.5,286047005.6,Y
1571767415.3,286047003.1,P
1571767435.1,286047005.6,P
1571767455.9,286047003.7,N
1571767475.7,286047005.7,N
1571767495.5,286047005.8,N
1571767515.4,286047005.1,N
1571767535.2,286047004.6,N
1571767555.1,286047006.0,Y
1571767556.0,286047006.0,P
1571767575.8,286046999.0,N
1571767595.6,286046999.0,N
1571767615.5,286046998.7,N
1571767635.3,286046998.8,N
1571767655.2,286047000.4,N
1571767675.9,286047002.4,N
1571767695.7,286047001.6,N
1571767715.6,286047000.4,N
1571767735.4,286046999.2,N
1571767755.3,286046997.2,N
1571767775.1,286046995.4,N
1571767776.0,286046995.4,N
1571767795.8,286046993.8,N
1571767815.7,286046995.8,N
1571767835.5,286046993.8,N
1571767855.3,286046995.3,N
1571767875.2,286046997.8,N
1571767895.0,286046996.5,N
1571767895.9,286046996.5,N
1571767915.8,286046996.9,N
1571767935.6,286046997.0,N
1571767955.4,286046997.8,N
1571767975.3,286046997.6,N
1571767995.1,286046995.4,N
1571768015.8,286046995.0,N
1571768035.7,286046996.9,N
1571768055.5,286046999.8,N
1571768075.4,286047002.0,N
1571768095.2,286047000.0,N
1571768115.0,286046999.9,N
1571768115.9,286046999.9,N
1571768135.8,286047001.0,N
1571768155.6,286047002.2,N
1571768175.4,286047002.6,N
1571768195.3,286046998.9,N
1571768215.1,286046996.6,N
1571768235.9,286046999.3,N
1571768255.7,286046997.1,N
1571768275.5,286047011.9,Y
1571768295.4,286046997.6,P
1571768315.2,286046999.2,P
1571768335.1,286047001.1,N
1571768336.0,286047001.1,N
1571768355.8,286047001.5,N
1571768375.6,286047003.6,N
1571768395.5,286047003.6,N
1571768415.3,286047002.2,N
1571768435.1,286047002.4,N
1571768455.9,286047001.5,N
1571768475.7,286047002.8,N
1571768495.6,286047001.1,N
1571768515.4,286046999.3,N
1571768535.2,286046999.5,N
1571768555.1,286047000.9,N
1571768556.0,286047000.9,N
1571768575.8,286047000.6,N
1571768595.6,286046999.8,N
1571768615.5,286047002.3,N
1571768635.3,286047002.1,N
1571768655.2,286047002.1,N
1571768675.9,286047002.8,N
1571768695.7,286047001.2,N
1571768715.6,286047000.9,N
1571768735.4,286047002.8,N
1571768755.2,286047002.1,N
1571768775.1,286047002.3,N
1571768776.0,286047002.3,N
1571768795.8,286047005.9,Y
1571768815.7,286047003.6,P
1571768835.5,286047001.7,N
1571768855.3,286047005.2,P
1571768875.2,286047008.2,Y
1571768895.0,286047007.0,P
1571768895.9,286047007.0,P
1571768915.8,286047003.4,N
1571768935.6,286047007.3,Y
1571768955.4,286046999.2,P
1571768975.3,286046999.5,N
1571768995.1,286046998.3,N
1571769015.9,286046999.0,N
1571769035.7,286046999.3,N
1571769055.5,286046997.4,N
1571769075.4,286046997.2,N
1571769095.2,286046997.5,N
1571769115.0,286046999.3,N
1571769115.9,286046999.3,N
1571769135.8,286047000.6,N
1571769155.6,286047002.4,N
1571769175.5,286047001.3,N
1571769195.3,286047003.7,N
1571769215.1,286047001.5,N
1571769235.9,286046998.9,N
1571769255.7,286046996.1,N
1571769275.5,286046999.6,N
1571769295.4,286047000.3,N
1571769315.2,286046997.0,N
1571769335.1,286046993.3,Y
1571769336.0,286046993.3,P
1571769355.8,286046992.0,N
1571769375.6,286046994.6,N
1571769395.5,286046992.0,N
1571769415.3,286046992.4,N
1571769435.2,286046994.7,N
1571769455.9,286046991.7,Y
1571769475.7,286047001.2,P
1571769495.6,286046999.1,N
1571769515.4,286047000.3,N
1571769535.2,286046997.0,N
1571769555.1,286047000.7,N
1571769556.0,286047000.7,N
1571769575.8,286047002.1,N
1571769595.7,286047002.0,N
1571769615.5,286047002.2,N
1571769635.3,286047003.7,N
1571769655.2,286047005.5,N
1571769675.0,286047004.0,N
1571769675.9,286047004.0,N
1571769695.7,286047004.4,N
1571769715.6,286047003.6,N
1571769735.4,286047002.4,N
1571769755.3,286047001.4,N
1571769775.1,286047001.8,N
1571769776.0,286047001.8,N
1571769795.8,286047000.1,N
1571769815.7,286047000.8,N
1571769835.5,286047002.3,N
1571769855.3,286047001.5,N
1571769875.2,286047005.9,N
1571769895.0,286047006.0,N
1571769895.9,286047006.0,N
1571769915.8,286047007.3,N
1571769935.6,286047008.0,N
1571769955.4,286047007.7,N
1571769975.3,286047010.5,Y
1571769995.1,286047008.9,P
1571770015.9,286047010.7,P
1571770035.7,286047010.1,N
1571770055.5,286047009.9,Y
1571770075.4,286047001.6,P
1571770095.2,286047001.4,N
1571770115.0,286047004.4,N
1571770115.9,286047004.4,N
1571770135.8,286047001.2,N
1571770155.6,286047000.5,N
1571770175.5,286047001.0,N
1571770195.3,286046998.2,N
1571770215.1,286047000.6,N
1571770235.9,286046998.1,N
1571770255.7,286047002.7,N
1571770275.5,286046999.8,N
1571770295.4,286047000.9,N
1571770315.2,286047000.1,N
1571770335.1,286047002.0,N
1571770336.0,286047002.0,N
1571770355.8,286047004.2,N
1571770375.6,286047001.5,N
1571770395.5,286047003.2,N
1571770415.3,286047003.9,N
1571770435.2,286047002.1,N
1571770455.9,286046999.9,N
1571770475.7,286047002.1,N
1571770495.6,286047001.9,N
1571770515.4,286047003.2,N
1571770535.2,286047003.2,N
1571770555.1,286047005.4,N
1571770556.0,286047005.4,N
1571770575.8,286047007.6,Y
1571770595.7,286047003.2,P
1571770615.5,286047005.6,P
1571770635.3,286047005.7,P
1571770655.2,286047003.0,N
1571770675.0,286047005.3,Y
1571770675.9,286047005.3,P
1571770695.8,286046999.8,N
1571770715.6,286047002.8,N
1571770735.4,286047002.2,N
1571770755.3,286047002.8,N
1571770775.1,286047000.3,N
1571770795.8,286047000.4,N
